Time,TemperatureF,DewpointF,PressureIn,WindDirection,WindDirectionDegrees,WindSpeedMPH,WindSpeedGustMPH,Humidity,HourlyPrecipIn,Conditions,Clouds,dailyrainin,SoftwareType,DateUTC
2013-01-08 00:01:00,31.2,27.0,30.10,SSW,213,1.0,4.0,84,0.00,,,0.00,weatherlink.com 1.10,2013-01-08 06:01:00,
2013-01-08 00:16:00,31.2,27.0,30.10,SSW,211,1.0,5.0,84,0.00,,,0.00,weatherlink.com 1.10,2013-01-08 06:16:00,
2013-01-08 00:31:00,31.0,27.0,30.10,SW,225,4.0,4.0,85,0.00,,,0.00,weatherlink.com 1.10,2013-01-08 06:31:00,
2013-01-08 00:46:00,31.1,27.0,30.10,SW,228,4.0,6.0,85,0.00,,,0.00,weatherlink.com 1.10,2013-01-08 06:46:00,
2013-01-08 01:01:00,31.0,27.0,30.10,SSW,211,1.0,5.0,85,0.00,,,0.00,weatherlink.com 1.10,2013-01-08 07:01:00,
2013-01-08 01:16:00,31.0,27.0,30.11,SSW,212,2.0,5.0,86,0.00,,,0.00,weatherlink.com 1.10,2013-01-08 07:16:00,
2013-01-08 01:31:00,31.0,27.0,30.11,SSW,212,3.0,3.0,86,0.00,,,0.00,weatherlink.com 1.10,2013-01-08 07:31:00,
2013-01-08 01:46:00,30.9,29.0,30.10,SW,216,0.0,3.0,92,0.00,,,0.00,weatherlink.com 1.10,2013-01-08 07:46:00,
2013-01-08 02:01:00,30.8,27.0,30.11,SSW,212,0.0,2.0,86,0.00,,,0.00,weatherlink.com 1.10,2013-01-08 08:01:00,
2013-01-08 02:16:00,30.4,27.0,30.11,SSW,212,1.0,3.0,86,0.00,,,0.00,weatherlink.com 1.10,2013-01-08 08:16:00,
2013-01-08 02:31:00,30.4,27.0,30.11,SW,220,0.0,3.0,86,0.00,,,0.00,weatherlink.com 1.10,2013-01-08 08:31:00,
2013-01-08 02:46:00,30.1,27.0,30.11,SW,220,1.0,2.0,87,0.00,,,0.00,weatherlink.com 1.10,2013-01-08 08:46:00,
2013-01-08 03:01:00,29.6,26.0,30.11,SW,220,0.0,2.0,87,0.00,,,0.00,weatherlink.com 1.10,2013-01-08 09:01:00,
2013-01-08 03:16:00,29.1,26.0,30.11,SW,220,0.0,0.0,88,0.00,,,0.00,weatherlink.com 1.10,2013-01-08 09:16:00,
2013-01-08 03:31:00,28.7,26.0,30.11,SW,220,0.0,1.0,89,0.00,,,0.00,weatherlink.com 1.10,2013-01-08 09:31:00,
2013-01-08 03:46:00,28.4,25.0,30.11,SW,220,0.0,1.0,88,0.00,,,0.00,weatherlink.com 1.10,2013-01-08 09:46:00,
2013-01-08 04:01:00,27.9,25.0,30.11,SW,220,0.0,0.0,89,0.00,,,0.00,weatherlink.com 1.10,2013-01-08 10:01:00,
2013-01-08 04:16:00,27.4,25.0,30.10,SW,220,0.0,0.0,90,0.00,,,0.00,weatherlink.com 1.10,2013-01-08 10:16:00,
2013-01-08 04:31:00,27.1,25.0,30.11,SW,220,0.0,0.0,91,0.00,,,0.00,weatherlink.com 1.10,2013-01-08 10:31:00,
2013-01-08 04:46:00,27.1,25.0,30.11,SW,220,0.0,0.0,91,0.00,,,0.00,weatherlink.com 1.10,2013-01-08 10:46:00,
2013-01-08 05:01:00,26.8,25.0,30.11,SW,220,0.0,0.0,91,0.00,,,0.00,weatherlink.com 1.10,2013-01-08 11:01:00,
2013-01-08 05:16:00,26.5,25.0,30.11,SW,220,0.0,0.0,92,0.00,,,0.00,weatherlink.com 1.10,2013-01-08 11:16:00,
2013-01-08 05:31:00,26.4,24.0,30.11,SW,220,0.0,0.0,92,0.00,,,0.00,weatherlink.com 1.10,2013-01-08 11:31:00,
2013-01-08 05:46:00,26.8,25.0,30.12,SW,220,0.0,1.0,92,0.00,,,0.00,weatherlink.com 1.10,2013-01-08 11:46:00,
2013-01-08 06:01:00,26.6,24.0,30.12,SW,220,0.0,0.0,91,0.00,,,0.00,weatherlink.com 1.10,2013-01-08 12:01:00,
2013-01-08 06:16:00,26.1,24.0,30.12,SW,220,0.0,0.0,92,0.00,,,0.00,weatherlink.com 1.10,2013-01-08 12:16:00,
2013-01-08 06:31:00,25.8,24.0,30.13,SW,220,0.0,0.0,92,0.00,,,0.00,weatherlink.com 1.10,2013-01-08 12:31:00,
2013-01-08 06:46:00,25.2,23.0,30.13,SW,220,0.0,0.0,92,0.00,,,0.00,weatherlink.com 1.10,2013-01-08 12:46:00,
2013-01-08 07:01:00,24.9,23.0,30.13,SW,220,0.0,0.0,93,0.00,,,0.00,weatherlink.com 1.10,2013-01-08 13:01:00,
2013-01-08 07:16:00,24.3,22.0,30.14,SW,220,0.0,0.0,92,0.00,,,0.00,weatherlink.com 1.10,2013-01-08 13:16:00,
2013-01-08 07:31:00,23.9,22.0,30.13,SW,220,0.0,0.0,93,0.00,,,0.00,weatherlink.com 1.10,2013-01-08 13:31:00,
2013-01-08 07:46:00,24.4,23.0,30.14,SW,220,1.0,1.0,94,0.00,,,0.00,weatherlink.com 1.10,2013-01-08 13:46:00,
2013-01-08 08:01:00,25.3,24.0,30.14,SW,220,0.0,2.0,94,0.00,,,0.00,weatherlink.com 1.10,2013-01-08 14:01:00,
2013-01-08 08:17:00,25.3,24.0,30.14,SW,220,0.0,1.0,93,0.00,,,0.00,weatherlink.com 1.10,2013-01-08 14:17:00,
2013-01-08 08:32:00,25.0,23.0,30.15,SW,220,0.0,2.0,93,0.00,,,0.00,weatherlink.com 1.10,2013-01-08 14:32:00,
2013-01-08 08:47:00,26.1,24.0,30.15,SSW,211,2.0,3.0,92,0.00,,,0.00,weatherlink.com 1.10,2013-01-08 14:47:00,
2013-01-08 09:02:00,26.9,25.0,30.14,SSW,200,4.0,6.0,91,0.00,,,0.00,weatherlink.com 1.10,2013-01-08 15:02:00,
2013-01-08 09:17:00,27.8,25.0,30.14,SSW,201,4.0,6.0,89,0.00,,,0.00,weatherlink.com 1.10,2013-01-08 15:17:00,
2013-01-08 09:32:00,28.5,25.0,30.14,SSW,199,4.0,5.0,88,0.00,,,0.00,weatherlink.com 1.10,2013-01-08 15:32:00,
2013-01-08 09:47:00,29.4,26.0,30.15,SSW,200,3.0,6.0,86,0.00,,,0.00,weatherlink.com 1.10,2013-01-08 15:47:00,
2013-01-08 10:02:00,30.0,26.0,30.14,SSW,198,4.0,6.0,85,0.00,,,0.00,weatherlink.com 1.10,2013-01-08 16:02:00,
2013-01-08 10:17:00,30.5,26.0,30.15,SSW,196,2.0,4.0,83,0.00,,,0.00,weatherlink.com 1.10,2013-01-08 16:17:00,
2013-01-08 10:32:00,31.2,26.0,30.14,SSW,197,1.0,3.0,82,0.00,,,0.00,weatherlink.com 1.10,2013-01-08 16:32:00,
2013-01-08 10:47:00,31.9,27.0,30.14,SSW,197,1.0,2.0,81,0.00,,,0.00,weatherlink.com 1.10,2013-01-08 16:47:00,
2013-01-08 11:02:00,32.5,27.0,30.13,SSW,197,0.0,3.0,80,0.00,,,0.00,weatherlink.com 1.10,2013-01-08 17:02:00,
2013-01-08 11:17:00,32.9,27.0,30.12,SSW,197,1.0,2.0,79,0.00,,,0.00,weatherlink.com 1.10,2013-01-08 17:17:00,
2013-01-08 11:32:00,33.7,28.0,30.12,SSW,197,0.0,1.0,78,0.00,,,0.00,weatherlink.com 1.10,2013-01-08 17:32:00,
2013-01-08 11:47:00,34.2,27.0,30.11,SSW,197,2.0,3.0,76,0.00,,,0.00,weatherlink.com 1.10,2013-01-08 17:47:00,
2013-01-08 12:02:00,34.8,28.0,30.11,SSW,196,2.0,3.0,76,0.00,,,0.00,weatherlink.com 1.10,2013-01-08 18:02:00,
2013-01-08 12:17:00,35.6,28.0,30.10,SSW,196,0.0,3.0,75,0.00,,,0.00,weatherlink.com 1.10,2013-01-08 18:17:00,
2013-01-08 12:32:00,36.6,29.0,30.09,SSW,196,2.0,3.0,73,0.00,,,0.00,weatherlink.com 1.10,2013-01-08 18:32:00,
2013-01-08 12:47:00,37.5,29.0,30.09,SSW,195,2.0,4.0,72,0.00,,,0.00,weatherlink.com 1.10,2013-01-08 18:47:00,
2013-01-08 13:02:00,38.6,30.0,30.09,SSW,198,1.0,3.0,70,0.00,,,0.00,weatherlink.com 1.10,2013-01-08 19:02:00,
2013-01-08 13:17:00,39.7,30.0,30.08,South,189,4.0,5.0,68,0.00,,,0.00,weatherlink.com 1.10,2013-01-08 19:17:00,
2013-01-08 13:32:00,39.8,30.0,30.08,SSW,195,2.0,6.0,67,0.00,,,0.00,weatherlink.com 1.10,2013-01-08 19:32:00,
2013-01-08 13:47:00,40.0,30.0,30.08,SSW,192,3.0,7.0,67,0.00,,,0.00,weatherlink.com 1.10,2013-01-08 19:47:00,
2013-01-08 14:02:00,40.1,29.0,30.07,SSW,194,3.0,6.0,66,0.00,,,0.00,weatherlink.com 1.10,2013-01-08 20:02:00,
2013-01-08 14:17:00,39.7,30.0,30.07,South,191,3.0,6.0,68,0.01,,,0.01,weatherlink.com 1.10,2013-01-08 20:17:00,
2013-01-08 14:32:00,39.4,30.0,30.07,SSE,165,3.0,6.0,68,0.01,,,0.01,weatherlink.com 1.10,2013-01-08 20:32:00,
2013-01-08 14:47:00,39.2,30.0,30.07,SSE,167,2.0,6.0,69,0.01,,,0.01,weatherlink.com 1.10,2013-01-08 20:47:00,
2013-01-08 15:02:00,39.1,30.0,30.07,SSW,207,3.0,7.0,69,0.01,,,0.01,weatherlink.com 1.10,2013-01-08 21:02:00,
2013-01-08 15:17:00,38.8,30.0,30.07,South,186,2.0,6.0,70,0.00,,,0.01,weatherlink.com 1.10,2013-01-08 21:17:00,
2013-01-08 15:32:00,38.4,30.0,30.07,SSW,194,4.0,7.0,71,0.01,,,0.02,weatherlink.com 1.10,2013-01-08 21:32:00,
2013-01-08 15:47:00,38.1,30.0,30.07,South,169,1.0,5.0,72,0.01,,,0.02,weatherlink.com 1.10,2013-01-08 21:47:00,
2013-01-08 16:02:00,37.7,30.0,30.06,SSE,168,2.0,4.0,73,0.02,,,0.03,weatherlink.com 1.10,2013-01-08 22:02:00,
2013-01-08 16:17:00,37.2,30.0,30.06,South,181,1.0,5.0,75,0.03,,,0.04,weatherlink.com 1.10,2013-01-08 22:17:00,
2013-01-08 16:32:00,36.9,30.0,30.05,South,184,0.0,4.0,76,0.02,,,0.04,weatherlink.com 1.10,2013-01-08 22:32:00,
2013-01-08 16:47:00,36.8,30.0,30.05,South,184,1.0,2.0,76,0.03,,,0.05,weatherlink.com 1.10,2013-01-08 22:47:00,
2013-01-08 17:03:00,36.6,30.0,30.05,South,177,1.0,4.0,76,0.02,,,0.05,weatherlink.com 1.10,2013-01-08 23:03:00,
2013-01-08 17:18:00,36.7,30.0,30.04,South,184,2.0,4.0,76,0.02,,,0.06,weatherlink.com 1.10,2013-01-08 23:18:00,
2013-01-08 17:33:00,36.8,30.0,30.04,South,171,0.0,4.0,76,0.02,,,0.06,weatherlink.com 1.10,2013-01-08 23:33:00,
2013-01-08 17:48:00,36.7,30.0,30.04,South,179,1.0,4.0,76,0.02,,,0.07,weatherlink.com 1.10,2013-01-08 23:48:00,
2013-01-08 18:03:00,36.9,30.0,30.04,South,174,2.0,5.0,76,0.01,,,0.07,weatherlink.com 1.10,2013-01-09 00:03:00,
2013-01-08 18:18:00,36.9,30.0,30.03,South,190,2.0,4.0,76,0.02,,,0.08,weatherlink.com 1.10,2013-01-09 00:18:00,
2013-01-08 18:33:00,36.9,30.0,30.04,South,174,3.0,6.0,76,0.02,,,0.08,weatherlink.com 1.10,2013-01-09 00:33:00,
2013-01-08 18:48:00,37.1,30.0,30.04,SSW,196,5.0,6.0,76,0.02,,,0.09,weatherlink.com 1.10,2013-01-09 00:48:00,
2013-01-08 19:03:00,37.1,30.0,30.03,SSE,165,4.0,7.0,76,0.01,,,0.09,weatherlink.com 1.10,2013-01-09 01:03:00,
2013-01-08 19:18:00,36.9,30.0,30.02,South,184,4.0,7.0,77,0.02,,,0.10,weatherlink.com 1.10,2013-01-09 01:18:00,
2013-01-08 19:33:00,36.7,30.0,30.02,South,181,3.0,6.0,77,0.02,,,0.10,weatherlink.com 1.10,2013-01-09 01:33:00,
2013-01-08 19:48:00,36.3,30.0,30.02,SW,219,4.0,7.0,78,0.01,,,0.10,weatherlink.com 1.10,2013-01-09 01:48:00,
2013-01-08 20:03:00,36.3,30.0,30.02,South,188,4.0,7.0,79,0.01,,,0.10,weatherlink.com 1.10,2013-01-09 02:03:00,
2013-01-08 20:18:00,36.4,30.0,30.02,South,188,3.0,7.0,79,0.01,,,0.11,weatherlink.com 1.10,2013-01-09 02:18:00,
2013-01-08 20:33:00,36.6,31.0,30.02,SW,229,4.0,5.0,79,0.01,,,0.11,weatherlink.com 1.10,2013-01-09 02:33:00,
2013-01-08 20:48:00,36.9,31.0,30.02,SSW,192,4.0,9.0,78,0.01,,,0.11,weatherlink.com 1.10,2013-01-09 02:48:00,
2013-01-08 21:03:00,37.2,31.0,30.02,South,184,3.0,7.0,77,0.01,,,0.11,weatherlink.com 1.10,2013-01-09 03:03:00,
2013-01-08 21:18:00,37.3,30.0,30.02,SSW,205,2.0,7.0,76,0.00,,,0.11,weatherlink.com 1.10,2013-01-09 03:18:00,
2013-01-08 21:33:00,37.4,30.0,30.02,SSW,192,5.0,8.0,76,0.00,,,0.11,weatherlink.com 1.10,2013-01-09 03:33:00,
2013-01-08 21:48:00,37.4,30.0,30.01,SSW,212,7.0,7.0,76,0.00,,,0.11,weatherlink.com 1.10,2013-01-09 03:48:00,
2013-01-08 22:03:00,37.5,31.0,30.01,SSW,198,6.0,7.0,76,0.00,,,0.11,weatherlink.com 1.10,2013-01-09 04:03:00,
2013-01-08 22:18:00,37.5,31.0,30.01,SW,226,6.0,10.0,76,0.01,,,0.12,weatherlink.com 1.10,2013-01-09 04:18:00,
2013-01-08 22:33:00,37.5,30.0,30.00,SSW,200,3.0,7.0,75,0.01,,,0.12,weatherlink.com 1.10,2013-01-09 04:33:00,
2013-01-08 22:48:00,37.7,30.0,29.99,SSW,200,1.0,6.0,74,0.01,,,0.12,weatherlink.com 1.10,2013-01-09 04:48:00,
2013-01-08 23:03:00,38.0,30.0,29.99,SSW,208,3.0,7.0,73,0.01,,,0.12,weatherlink.com 1.10,2013-01-09 05:03:00,
2013-01-08 23:18:00,38.3,30.0,29.98,SSW,196,7.0,7.0,73,0.01,,,0.13,weatherlink.com 1.10,2013-01-09 05:18:00,
2013-01-08 23:33:00,38.4,30.0,29.97,SSW,198,3.0,7.0,72,0.01,,,0.13,weatherlink.com 1.10,2013-01-09 05:33:00,
2013-01-08 23:48:00,38.3,30.0,29.97,South,188,4.0,7.0,73,0.01,,,0.13,weatherlink.com 1.10,2013-01-09 05:48:00,